Time,TemperatureF,DewpointF,PressureIn,WindDirection,WindDirectionDegrees,WindSpeedMPH,WindSpeedGustMPH,Humidity,HourlyPrecipIn,Conditions,Clouds,dailyrainin,SoftwareType,DateUTC
2013-05-13 00:01:00,51.9,33.0,30.05,WNW,286,0.0,0.0,48,0.00,,,0.02,weatherlink.com 1.10,2013-05-13 04:01:00,
2013-05-13 00:16:00,50.6,32.0,30.05,WNW,286,0.0,0.0,49,0.00,,,0.02,weatherlink.com 1.10,2013-05-13 04:16:00,
2013-05-13 00:31:00,50.9,32.0,30.05,WNW,286,1.0,1.0,48,0.00,,,0.02,weatherlink.com 1.10,2013-05-13 04:31:00,
2013-05-13 00:46:00,50.5,33.0,30.05,WNW,286,0.0,1.0,52,0.00,,,0.00,weatherlink.com 1.10,2013-05-13 04:46:00,
2013-05-13 01:02:00,49.2,33.0,30.05,NE,40,0.0,2.0,55,0.00,,,0.00,weatherlink.com 1.10,2013-05-13 05:02:00,
2013-05-13 01:17:00,48.7,33.0,30.05,NE,40,0.0,0.0,55,0.00,,,0.00,weatherlink.com 1.10,2013-05-13 05:17:00,
2013-05-13 01:32:00,48.1,35.0,30.05,NE,40,0.0,0.0,61,0.00,,,0.00,weatherlink.com 1.10,2013-05-13 05:32:00,
2013-05-13 01:47:00,47.2,35.0,30.05,NE,40,0.0,0.0,63,0.00,,,0.00,weatherlink.com 1.10,2013-05-13 05:47:00,
2013-05-13 02:02:00,46.4,36.0,30.04,NE,40,0.0,0.0,67,0.00,,,0.00,weatherlink.com 1.10,2013-05-13 06:02:00,
2013-05-13 02:17:00,45.8,36.0,30.04,NE,40,0.0,0.0,68,0.00,,,0.00,weatherlink.com 1.10,2013-05-13 06:17:00,
2013-05-13 02:32:00,45.4,36.0,30.04,NE,40,0.0,0.0,69,0.00,,,0.00,weatherlink.com 1.10,2013-05-13 06:32:00,
2013-05-13 02:47:00,45.2,36.0,30.05,NE,40,0.0,0.0,71,0.00,,,0.00,weatherlink.com 1.10,2013-05-13 06:47:00,
2013-05-13 03:02:00,45.1,37.0,30.05,NE,40,0.0,0.0,72,0.00,,,0.00,weatherlink.com 1.10,2013-05-13 07:02:00,
2013-05-13 03:17:00,44.8,36.0,30.05,NE,40,0.0,0.0,72,0.00,,,0.00,weatherlink.com 1.10,2013-05-13 07:17:00,
2013-05-13 03:32:00,44.1,37.0,30.05,NE,40,0.0,0.0,75,0.00,,,0.00,weatherlink.com 1.10,2013-05-13 07:32:00,
2013-05-13 03:47:00,44.2,37.0,30.05,NE,40,0.0,0.0,75,0.00,,,0.00,weatherlink.com 1.10,2013-05-13 07:47:00,
2013-05-13 04:02:00,44.0,36.0,30.05,NE,40,0.0,0.0,74,0.00,,,0.00,weatherlink.com 1.10,2013-05-13 08:02:00,
2013-05-13 04:17:00,43.7,37.0,30.05,NE,40,0.0,0.0,76,0.00,,,0.00,weatherlink.com 1.10,2013-05-13 08:17:00,
2013-05-13 04:32:00,43.4,37.0,30.05,NE,40,0.0,0.0,77,0.00,,,0.00,weatherlink.com 1.10,2013-05-13 08:32:00,
2013-05-13 04:47:00,43.1,37.0,30.05,NE,40,0.0,0.0,80,0.00,,,0.00,weatherlink.com 1.10,2013-05-13 08:47:00,
2013-05-13 05:02:00,42.9,36.0,30.06,NE,40,0.0,1.0,78,0.00,,,0.00,weatherlink.com 1.10,2013-05-13 09:02:00,
2013-05-13 05:17:00,42.8,37.0,30.07,NE,40,0.0,0.0,80,0.00,,,0.00,weatherlink.com 1.10,2013-05-13 09:17:00,
2013-05-13 05:32:00,42.8,37.0,30.07,NE,40,0.0,0.0,80,0.00,,,0.00,weatherlink.com 1.10,2013-05-13 09:32:00,
2013-05-13 05:47:00,42.7,37.0,30.08,NE,38,0.0,1.0,80,0.00,,,0.00,weatherlink.com 1.10,2013-05-13 09:47:00,
2013-05-13 06:02:00,42.4,37.0,30.09,NE,38,0.0,1.0,81,0.00,,,0.00,weatherlink.com 1.10,2013-05-13 10:02:00,
2013-05-13 06:17:00,42.6,37.0,30.09,NE,38,0.0,0.0,80,0.00,,,0.00,weatherlink.com 1.10,2013-05-13 10:17:00,
2013-05-13 06:32:00,42.9,37.0,30.10,NE,38,0.0,0.0,81,0.00,,,0.00,weatherlink.com 1.10,2013-05-13 10:32:00,
2013-05-13 06:47:00,43.7,38.0,30.10,NE,38,0.0,0.0,80,0.00,,,0.00,weatherlink.com 1.10,2013-05-13 10:47:00,
2013-05-13 07:02:00,45.2,38.0,30.10,NE,38,0.0,0.0,75,0.00,,,0.00,weatherlink.com 1.10,2013-05-13 11:02:00,
2013-05-13 07:17:00,47.6,37.0,30.10,NE,38,0.0,0.0,68,0.00,,,0.00,weatherlink.com 1.10,2013-05-13 11:17:00,
2013-05-13 07:32:00,49.9,36.0,30.11,NW,311,0.0,4.0,60,0.00,,,0.00,weatherlink.com 1.10,2013-05-13 11:32:00,
2013-05-13 07:47:00,51.0,36.0,30.11,NW,311,0.0,2.0,57,0.00,,,0.00,weatherlink.com 1.10,2013-05-13 11:47:00,
2013-05-13 08:02:00,51.7,35.0,30.11,NNW,342,3.0,3.0,54,0.00,,,0.00,weatherlink.com 1.10,2013-05-13 12:02:00,
2013-05-13 08:17:00,51.9,32.0,30.12,WSW,257,5.0,6.0,47,0.00,,,0.00,weatherlink.com 1.10,2013-05-13 12:17:00,
2013-05-13 08:33:00,52.0,33.0,30.12,NNW,339,0.0,4.0,48,0.00,,,0.00,weatherlink.com 1.10,2013-05-13 12:33:00,
2013-05-13 08:48:00,53.0,31.0,30.12,WNW,297,4.0,7.0,44,0.00,,,0.00,weatherlink.com 1.10,2013-05-13 12:48:00,
2013-05-13 09:03:00,53.5,31.0,30.12,WSW,240,2.0,8.0,43,0.00,,,0.00,weatherlink.com 1.10,2013-05-13 13:03:00,
2013-05-13 09:18:00,54.0,31.0,30.12,WNW,298,0.0,8.0,42,0.00,,,0.00,weatherlink.com 1.10,2013-05-13 13:18:00,
2013-05-13 09:33:00,54.9,33.0,30.12,West,266,0.0,6.0,43,0.00,,,0.00,weatherlink.com 1.10,2013-05-13 13:33:00,
2013-05-13 09:48:00,54.7,32.0,30.12,WSW,251,2.0,6.0,42,0.00,,,0.00,weatherlink.com 1.10,2013-05-13 13:48:00,
2013-05-13 10:03:00,55.8,32.0,30.11,WNW,286,5.0,7.0,41,0.00,,,0.00,weatherlink.com 1.10,2013-05-13 14:03:00,
2013-05-13 10:18:00,56.1,31.0,30.12,WNW,286,2.0,11.0,39,0.00,,,0.00,weatherlink.com 1.10,2013-05-13 14:18:00,
2013-05-13 10:33:00,55.8,30.0,30.12,NW,316,1.0,12.0,38,0.00,,,0.00,weatherlink.com 1.10,2013-05-13 14:33:00,
2013-05-13 10:48:00,56.9,31.0,30.11,West,271,2.0,9.0,37,0.00,,,0.00,weatherlink.com 1.10,2013-05-13 14:48:00,
2013-05-13 11:03:00,56.4,30.0,30.12,WSW,245,1.0,9.0,36,0.00,,,0.00,weatherlink.com 1.10,2013-05-13 15:03:00,
2013-05-13 11:18:00,57.4,27.0,30.12,West,276,2.0,11.0,31,0.00,,,0.00,weatherlink.com 1.10,2013-05-13 15:18:00,
2013-05-13 11:33:00,57.6,26.0,30.11,West,268,7.0,14.0,30,0.00,,,0.00,weatherlink.com 1.10,2013-05-13 15:33:00,
2013-05-13 11:48:00,56.4,29.0,30.12,West,276,10.0,11.0,35,0.00,,,0.00,weatherlink.com 1.10,2013-05-13 15:48:00,
2013-05-13 12:03:00,56.2,31.0,30.12,North,3,4.0,10.0,38,0.00,,,0.00,weatherlink.com 1.10,2013-05-13 16:03:00,
2013-05-13 12:18:00,58.0,32.0,30.11,WSW,258,4.0,10.0,38,0.00,,,0.00,weatherlink.com 1.10,2013-05-13 16:18:00,
2013-05-13 12:33:00,57.9,29.0,30.11,North,353,4.0,13.0,33,0.00,,,0.00,weatherlink.com 1.10,2013-05-13 16:33:00,
2013-05-13 12:48:00,57.3,29.0,30.11,West,276,2.0,9.0,34,0.00,,,0.00,weatherlink.com 1.10,2013-05-13 16:48:00,
2013-05-13 13:03:00,56.7,30.0,30.11,West,259,4.0,9.0,36,0.00,,,0.00,weatherlink.com 1.10,2013-05-13 17:03:00,
2013-05-13 13:18:00,58.8,29.0,30.10,West,267,1.0,7.0,32,0.00,,,0.00,weatherlink.com 1.10,2013-05-13 17:18:00,
2013-05-13 13:33:00,59.7,27.0,30.09,North,353,5.0,8.0,29,0.00,,,0.00,weatherlink.com 1.10,2013-05-13 17:33:00,
2013-05-13 13:48:00,58.7,27.0,30.09,WNW,300,5.0,11.0,30,0.00,,,0.00,weatherlink.com 1.10,2013-05-13 17:48:00,
2013-05-13 14:03:00,58.7,25.0,30.08,NW,305,0.0,11.0,28,0.00,,,0.00,weatherlink.com 1.10,2013-05-13 18:03:00,
2013-05-13 14:18:00,58.1,27.0,30.08,NW,309,0.0,5.0,30,0.00,,,0.00,weatherlink.com 1.10,2013-05-13 18:18:00,
2013-05-13 14:33:00,60.0,28.0,30.07,SSW,207,3.0,7.0,30,0.00,,,0.00,weatherlink.com 1.10,2013-05-13 18:33:00,
2013-05-13 14:48:00,61.0,28.0,30.07,NNW,341,2.0,10.0,29,0.00,,,0.00,weatherlink.com 1.10,2013-05-13 18:48:00,
2013-05-13 15:03:00,59.6,25.0,30.06,WNW,298,2.0,11.0,27,0.00,,,0.00,weatherlink.com 1.10,2013-05-13 19:03:00,
2013-05-13 15:18:00,61.1,26.0,30.06,NW,309,4.0,9.0,26,0.00,,,0.00,weatherlink.com 1.10,2013-05-13 19:18:00,
2013-05-13 15:33:00,60.9,26.0,30.05,NE,42,4.0,10.0,26,0.00,,,0.00,weatherlink.com 1.10,2013-05-13 19:33:00,
2013-05-13 15:48:00,59.5,23.0,30.05,West,262,7.0,10.0,25,0.00,,,0.00,weatherlink.com 1.10,2013-05-13 19:48:00,
2013-05-13 16:03:00,60.6,27.0,30.05,NNW,339,2.0,13.0,28,0.00,,,0.00,weatherlink.com 1.10,2013-05-13 20:03:00,
2013-05-13 16:18:00,60.1,25.0,30.05,WNW,298,2.0,9.0,26,0.00,,,0.00,weatherlink.com 1.10,2013-05-13 20:18:00,
2013-05-13 16:33:00,59.9,26.0,30.05,West,259,6.0,8.0,27,0.00,,,0.00,weatherlink.com 1.10,2013-05-13 20:33:00,
2013-05-13 16:48:00,60.3,26.0,30.05,NW,314,2.0,12.0,27,0.00,,,0.00,weatherlink.com 1.10,2013-05-13 20:48:00,
2013-05-13 17:03:00,60.8,24.0,30.04,SW,221,3.0,8.0,24,0.00,,,0.00,weatherlink.com 1.10,2013-05-13 21:03:00,
2013-05-13 17:18:00,60.6,27.0,30.05,NE,56,1.0,12.0,28,0.00,,,0.00,weatherlink.com 1.10,2013-05-13 21:18:00,
2013-05-13 17:33:00,61.2,28.0,30.04,SSE,154,0.0,8.0,28,0.00,,,0.00,weatherlink.com 1.10,2013-05-13 21:33:00,
2013-05-13 17:48:00,61.1,28.0,30.05,WNW,297,1.0,8.0,29,0.00,,,0.00,weatherlink.com 1.10,2013-05-13 21:48:00,
2013-05-13 18:03:00,60.0,28.0,30.04,West,263,2.0,8.0,30,0.00,,,0.00,weatherlink.com 1.10,2013-05-13 22:03:00,
2013-05-13 18:18:00,60.2,25.0,30.04,SW,225,4.0,9.0,26,0.00,,,0.00,weatherlink.com 1.10,2013-05-13 22:18:00,
2013-05-13 18:33:00,59.9,26.0,30.05,NNW,333,1.0,9.0,27,0.00,,,0.00,weatherlink.com 1.10,2013-05-13 22:33:00,
2013-05-13 18:48:00,59.1,25.0,30.05,North,356,1.0,10.0,27,0.00,,,0.00,weatherlink.com 1.10,2013-05-13 22:48:00,
2013-05-13 19:03:00,58.4,27.0,30.05,West,276,2.0,12.0,30,0.00,,,0.00,weatherlink.com 1.10,2013-05-13 23:03:00,
2013-05-13 19:18:00,58.1,26.0,30.06,West,262,0.0,9.0,29,0.00,,,0.00,weatherlink.com 1.10,2013-05-13 23:18:00,
2013-05-13 19:33:00,57.8,26.0,30.06,West,272,1.0,6.0,29,0.00,,,0.00,weatherlink.com 1.10,2013-05-13 23:33:00,
2013-05-13 19:48:00,56.6,27.0,30.07,West,263,0.0,6.0,32,0.00,,,0.00,weatherlink.com 1.10,2013-05-13 23:48:00,
2013-05-13 20:03:00,56.2,25.0,30.08,West,276,0.0,6.0,30,0.00,,,0.00,weatherlink.com 1.10,2013-05-14 00:03:00,
2013-05-13 20:18:00,55.3,26.0,30.08,West,276,0.0,1.0,33,0.00,,,0.00,weatherlink.com 1.10,2013-05-14 00:18:00,
2013-05-13 20:33:00,54.9,26.0,30.09,West,265,0.0,2.0,33,0.00,,,0.00,weatherlink.com 1.10,2013-05-14 00:33:00,
2013-05-13 20:48:00,54.1,27.0,30.10,West,261,0.0,1.0,35,0.00,,,0.00,weatherlink.com 1.10,2013-05-14 00:48:00,
2013-05-13 21:03:00,53.4,27.0,30.10,West,261,0.0,1.0,36,0.00,,,0.00,weatherlink.com 1.10,2013-05-14 01:03:00,
2013-05-13 21:18:00,52.3,28.0,30.11,West,261,0.0,0.0,40,0.00,,,0.00,weatherlink.com 1.10,2013-05-14 01:18:00,
2013-05-13 21:33:00,51.2,30.0,30.12,West,261,0.0,0.0,44,0.00,,,0.00,weatherlink.com 1.10,2013-05-14 01:33:00,
2013-05-13 21:48:00,50.8,30.0,30.13,West,261,0.0,0.0,45,0.00,,,0.00,weatherlink.com 1.10,2013-05-14 01:48:00,
2013-05-13 22:04:00,50.3,31.0,30.14,West,261,0.0,0.0,47,0.00,,,0.00,weatherlink.com 1.10,2013-05-14 02:04:00,
2013-05-13 22:18:00,50.0,31.0,30.14,West,261,0.0,0.0,48,0.00,,,0.00,weatherlink.com 1.10,2013-05-14 02:18:00,
2013-05-13 22:34:00,49.2,32.0,30.15,West,261,0.0,0.0,51,0.00,,,0.00,weatherlink.com 1.10,2013-05-14 02:34:00,
2013-05-13 22:49:00,49.4,31.0,30.15,West,261,0.0,1.0,49,0.00,,,0.00,weatherlink.com 1.10,2013-05-14 02:49:00,
2013-05-13 23:04:00,49.1,31.0,30.16,West,261,0.0,0.0,51,0.00,,,0.00,weatherlink.com 1.10,2013-05-14 03:04:00,
2013-05-13 23:19:00,47.9,32.0,30.16,West,261,0.0,0.0,54,0.00,,,0.00,weatherlink.com 1.10,2013-05-14 03:19:00,
2013-05-13 23:34:00,47.0,32.0,30.16,West,261,0.0,0.0,57,0.00,,,0.00,weatherlink.com 1.10,2013-05-14 03:34:00,
2013-05-13 23:49:00,46.3,33.0,30.17,West,261,0.0,0.0,61,0.00,,,0.00,weatherlink.com 1.10,2013-05-14 03:49:00,